Flag for Germany Weather past 2 weeks in Aalen, Baden-Württemberg, Germany

Now
79 °F

Clear.


Feels Like: 80 °F
Forecast: 66 / 81 °F
Wind: 1 mph from Northwest

Location: Stoetten

Current Time: Jul 5, 2015 at 2:55:30 AM

Latest Report: Jul 5, 2015 at 2:00 AM


Visibility: 15 mi

Pressure: 30.06 "Hg

Humidity: 48%

Dew point: 57 °F

Location of AalenLocation

Historic Weather in Aalen — Graph

°F

Aalen temperature yesterday

Maximum temperature yesterday: 89 °F (at 4:00 PM)
Minimum temperature yesterday: 69 °F (at 7:00 AM)
Average temperature yesterday: 80 °F

Past Weeks' High & Low Weather Summary

 TemperatureHumidityPressure
High89 °F (Jul 4, 4:00 PM)100% (Jun 20, 5:00 AM)30.23 "Hg (Jun 20, 5:00 AM)
Low44 °F (Jun 21, 2:00 AM)35% (Jun 30, 4:00 PM)29.74 "Hg (Jun 22, 10:00 PM)
Average63 °F70%30.10 "Hg
* Reported Jun 20 1:00 AM — Jul 5 1:00 AM, Aalen, Weather by CustomWeather, © 2015

Note: Actual official high and low records may vary slightly from our data, if they occured in-between our weather recording intervals... More about our weather records

Advertising

Aalen weather history for previous 24 hours

 ConditionsComfort  
Time TempWeatherWind HumidityBarometerVisibility
1:00 AM
Sun, Jul 5
79 °FClear.2 mph48%30.06 "Hg12 mi
12:00 AM79 °FClear.1 mph46%30.07 "Hg15 mi
11:00 PM
Sat, Jul 4
80 °FClear.2 mph46%30.07 "Hg17 mi
10:00 PM79 °FClear.3 mph48%30.08 "Hg17 mi
9:00 PM81 °FPartly sunny.5 mph45%30.07 "Hg34 mi
8:00 PM86 °FPassing clouds.2 mph59%30.03 "Hg34 mi
7:00 PM87 °FPartly sunny.3 mph48%30.03 "Hg34 mi
6:00 PM89 °FPartly sunny.2 mph37%30.03 "Hg34 mi
5:00 PM89 °FPartly sunny.2 mph40%30.04 "Hg34 mi
4:00 PM89 °FPartly sunny.2 mph40%30.05 "Hg34 mi
3:00 PM87 °FPartly sunny.3 mph38%30.07 "Hg34 mi
2:00 PM86 °FPartly sunny.5 mph44%30.08 "Hg34 mi
1:00 PM85 °FScattered clouds.3 mph50%30.09 "Hg31 mi
12:00 PM83 °FPassing clouds.2 mph54%30.10 "Hg34 mi
11:00 AM81 °FPassing clouds.3 mph56%30.10 "Hg37 mi
10:00 AM79 °FPassing clouds.3 mph59%30.11 "Hg40 mi
9:00 AM78 °FPassing clouds.3 mph54%30.12 "Hg40 mi
8:00 AM72 °FSunny.5 mph65%30.15 "Hg37 mi
7:00 AM69 °FSunny.5 mph74%30.16 "Hg34 mi
5:00 AM71 °FPassing clouds.5 mph65%30.15 "Hg16 mi
4:00 AM73 °FClear.5 mph59%30.15 "Hg18 mi
3:00 AM74 °FClear.5 mph59%30.16 "Hg19 mi
2:00 AM74 °FClear.5 mph60%30.16 "Hg18 mi
Weather by CustomWeather, © 2015

See weather overviewHow to use our weather pages